Location: Bieg
(49.3499°N, 10.3835°E)
Time: 21:25:34
(UTC+00:00)

Meteor 1-24 Rocket - Pass Details

Date: 23 May 2024
Orbit: 788 x 927 km, 81.3° (Epoch: 22 June)

Event Time Altitude Azimuth Distance (km) Brightness Sun altitude
Exits shadow 02:02:47 - 189° (S) 2,719 5.8 -10.7°
Reaches altitude 10° 02:03:02 10° 189° (S) 2,624 5.7 -10.7°
Maximum altitude 02:09:05 89° 105° (ESE) 933 3.9 -10.1°
Drops below altitude 10° 02:15:07 10° 12° (NNE) 2,617 7.3 -9.4°
Sets 02:17:34 0° 13° (NNE) 3,550 8.1 -9.2°
